DW0479 Weather Reports


Display with metric or nautical units.
time (UTC)temp
F
wind
direction
speed
MPH
gust
MPH
rain 1hr
in
rain 24hr
in
rain mn
in
humidity
%
barometer
mb
20260903154231 88 163 2.0 7.0 0.00 0.00 0.00 75 1015.0
20260903153231 88 110 3.0 7.0 0.00 0.00 0.00 77 1015.1
20260903152228 87 175 3.0 8.0 0.00 0.00 0.00 75 1015.2
20260903151226 87 165 4.0 8.0 0.00 0.00 0.00 75 1015.2
20260903150711 87 163 4.0 8.0 0.00 0.00 0.00 77 1015.3
20260903145227 88 174 3.0 8.0 0.00 0.00 0.00 77 1015.2
20260903144219 87 168 3.0 9.0 0.00 0.00 0.00 77 1015.2
20260903143218 87 202 3.0 7.0 0.00 0.00 0.00 78 1015.1
20260903142218 86 173 2.0 8.0 0.00 0.00 0.00 80 1015.2
20260903141220 86 233 2.0 5.0 0.00 0.00 0.00 85 1015.0
20260903140703 84 182 2.0 6.0 0.00 0.00 0.00 83 1014.9
20260903135219 85 135 3.0 7.0 0.00 0.00 0.00 83 1014.9
20260903134220 84 143 2.0 6.0 0.00 0.00 0.00 86 1014.9
20260903133218 84 110 1.0 7.0 0.00 0.00 0.00 86 1014.9
20260903132217 84 110 1.0 7.0 0.00 0.00 0.00 85 1014.9
20260903131217 84 92 2.0 4.0 0.00 0.00 0.00 87 1014.9
20260903130216 83 102 2.0 6.0 0.00 0.00 0.00 88 1014.8
20260903125659 82 51 2.0 5.0 0.00 0.00 0.00 89 1014.6
20260903124700 82 48 2.0 4.0 0.00 0.00 0.00 91 1014.6
20260903123208 81 48 2.0 5.0 0.00 0.00 0.00 93 1014.7
20260903122208 80 50 2.0 5.0 0.00 0.00 0.00 93 1014.5
20260903121207 80 84 2.0 6.0 0.00 0.00 0.00 94 1014.5
20260903121133 79 28 1.0 3.0 0.00 0.00 0.00 94 1014.4
20260903115207 78 28 0.0 2.0 0.00 0.00 0.00 94 1014.3
20260903115119 78 28 0.0 3.0 0.00 0.00 0.00 94 1014.1
20260903113157 78 28 1.0 3.0 0.00 0.00 0.00 94 1013.8
20260903112635 78 28 1.0 3.0 0.00 0.00 0.00 94 1013.6
20260903111154 78 28 2.0 4.0 0.00 0.00 0.00 94 1013.6
20260903110153 77 27 2.0 4.0 0.00 0.00 0.00 94 1013.5
20260903105154 78 27 2.0 5.0 0.00 0.00 0.00 94 1013.4
20260903104152 78 10 2.0 4.0 0.00 0.00 0.00 94 1013.3
20260903103151 78 116 2.0 3.0 0.00 0.00 0.00 94 1013.1
20260903102618 78 116 0.0 2.0 0.00 0.00 0.00 94 1013.2
20260903101138 77 116 0.0 0.0 0.00 0.00 0.00 94 1013.3
20260903100137 77 116 0.0 1.0 0.00 0.00 0.00 94 1013.4
20260903095136 77 116 0.0 0.0 0.00 0.00 0.00 94 1013.4
20260903094137 77 116 0.0 0.0 0.00 0.00 0.00 94 1013.3
20260903093136 77 116 0.0 1.0 0.00 0.00 0.00 94 1013.2
20260903092136 77 116 0.0 0.0 0.00 0.00 0.00 94 1013.2
20260903091610 77 116 0.0 0.0 0.00 0.00 0.00 94 1013.2
20260903090136 77 116 0.0 0.0 0.00 0.00 0.00 94 1013.1
20260903085617 77 116 0.0 1.0 0.00 0.00 0.00 94 1013.1
20260903084131 78 116 0.0 0.0 0.00 0.00 0.00 94 1013.1
20260903083133 78 116 0.0 0.0 0.00 0.00 0.00 94 1013.2
20260903082132 78 116 0.0 0.0 0.00 0.00 0.00 93 1013.1
20260903081133 78 116 0.0 0.0 0.00 0.00 0.00 93 1013.1
20260903080119 78 116 0.0 0.0 0.00 0.00 0.00 93 1013.2
20260903075604 78 116 0.0 0.0 0.00 0.00 0.00 93 1013.2
20260903074117 78 116 0.0 0.0 0.00 0.00 0.00 93 1013.2
20260903074044 78 116 0.0 0.0 0.00 0.00 0.00 93 1013.2
20260903072122 78 116 0.0 0.0 0.00 0.00 0.00 93 1013.5
20260903071103 78 116 0.0 2.0 0.00 0.00 0.00 93 1013.6
20260903070541 78 116 1.0 3.0 0.00 0.00 0.00 93 1013.5
20260903065104 79 116 1.0 2.0 0.00 0.00 0.00 93 1013.6
20260903064105 79 116 1.0 2.0 0.00 0.00 0.00 92 1013.6
20260903063106 79 116 1.0 3.0 0.00 0.00 0.00 92 1013.5
20260903062055 79 116 0.0 0.0 0.00 0.00 0.00 92 1013.6
20260903061054 79 116 0.0 0.0 0.00 0.00 0.00 92 1013.7
20260903060053 79 116 0.0 0.0 0.00 0.00 0.00 92 1013.8
20260903060012 80 116 0.0 2.0 0.00 0.00 0.00 92 1013.9
20260903054055 79 116 0.0 2.0 0.00 0.00 0.00 91 1013.9
20260903053052 80 116 0.0 1.0 0.00 0.00 0.00 91 1014.0
20260903052526 80 116 0.0 2.0 0.00 0.00 0.00 91 1014.1
20260903051051 80 116 0.0 3.0 0.00 0.00 0.00 91 1014.2
20260903050053 80 116 1.0 3.0 0.00 0.00 0.00 91 1014.3
20260903045046 80 116 1.0 3.0 0.00 0.00 0.00 90 1014.5
20260903044046 80 116 2.0 4.0 0.00 0.00 0.00 90 1014.6
20260903043046 80 101 3.0 7.0 0.00 0.00 0.00 90 1014.7
20260903042045 80 116 2.0 6.0 0.00 0.00 0.00 90 1014.8
20260903041046 80 103 2.0 6.0 0.00 0.00 0.00 90 1015.0
20260903040041 80 122 1.0 4.0 0.00 0.00 0.00 90 1014.8
20260903035040 81 122 1.0 4.0 0.00 0.00 0.00 89 1014.9
20260903034040 81 122 2.0 8.0 0.00 0.00 0.00 89 1014.8
20260903033040 81 117 2.0 6.0 0.00 0.00 0.00 89 1014.9
20260903032515 81 97 2.0 6.0 0.00 0.00 0.00 88 1015.0
20260903031029 81 103 2.0 8.0 0.00 0.00 0.00 88 1014.8
20260903030027 81 96 1.0 4.0 0.00 0.00 0.00 88 1015.1
20260903025028 81 96 1.0 2.0 0.00 0.00 0.00 87 1015.1
20260903024029 81 96 0.0 2.0 0.00 0.00 0.00 87 1015.2
20260903023027 81 96 1.0 5.0 0.00 0.00 0.00 87 1014.9
20260903022027 82 99 2.0 6.0 0.00 0.00 0.00 87 1014.9
20260903021508 82 140 3.0 8.0 0.00 0.00 0.00 86 1014.8
20260903020518 82 69 2.0 5.0 0.00 0.00 0.00 86 1014.7
20260903015023 82 94 3.0 9.0 0.00 0.00 0.00 86 1014.8
20260903014019 82 79 2.0 7.0 0.00 0.00 0.00 86 1014.7
20260903013021 82 59 2.0 6.0 0.00 0.00 0.00 86 1014.5
20260903012509 82 85 3.0 8.0 0.00 0.00 0.00 85 1014.4
20260903011020 82 79 3.0 9.0 0.00 0.00 0.00 85 1014.3
20260903010019 83 88 3.0 7.0 0.00 0.00 0.00 84 1014.4
20260903005021 83 59 2.0 7.0 0.00 0.00 0.00 84 1014.1
20260903004019 83 59 3.0 6.0 0.00 0.00 0.00 84 1014.0
20260903003017 83 40 4.0 7.0 0.00 0.00 0.00 84 1013.8
20260903002018 83 39 2.0 6.0 0.00 0.00 0.00 84 1013.8
20260903001017 83 79 2.0 6.0 0.00 0.00 0.00 84 1014.0
20260903000017 83 38 2.0 5.0 0.00 0.00 0.00 85 1014.1
20260902235017 84 355 2.0 4.0 0.00 0.00 0.00 85 1014.1
20260902234016 84 344 3.0 5.0 0.00 0.00 0.00 85 1014.1
20260902233017 84 79 1.0 3.0 0.00 0.00 0.00 84 1013.8
20260902232017 85 81 1.0 4.0 0.00 0.00 0.00 83 1013.8
20260902231017 85 81 2.0 5.0 0.00 0.00 0.00 83 1013.6
20260902230017 85 80 2.0 4.0 0.00 0.00 0.00 82 1013.5
20260902225018 85 15 2.0 4.0 0.00 0.00 0.00 82 1013.2
20260902224451 85 85 2.0 5.0 0.00 0.00 0.00 81 1013.4
20260902223454 85 24 2.0 5.0 0.00 0.00 0.00 80 1013.5
20260902222014 86 29 2.0 7.0 0.00 0.00 0.00 79 1013.5
20260902221010 86 19 2.0 6.0 0.00 0.00 0.00 78 1013.5
20260902220012 86 71 2.0 11.0 0.00 0.00 0.00 78 1013.1
20260902215002 87 69 4.0 10.0 0.00 0.00 0.00 76 1013.0
20260902214000 87 84 3.0 9.0 0.00 0.00 0.00 74 1012.8
20260902213000 88 67 5.0 15.0 0.00 0.00 0.00 73 1013.2
20260902212913 89 96 6.0 13.0 0.00 0.00 0.00 72 1013.2
20260902211431 90 88 5.0 11.0 0.00 0.00 0.00 74 1013.5
20260902210422 90 73 6.0 12.0 0.00 0.00 0.00 74 1013.3
20260902204941 89 79 5.0 13.0 0.00 0.00 0.00 74 1013.1
20260902203930 90 42 5.0 11.0 0.00 0.00 0.00 72 1013.3
20260902203416 90 40 6.0 11.0 0.00 0.00 0.00 73 1013.1
20260902201933 91 39 5.0 11.0 0.00 0.00 0.00 70 1013.2
20260902200931 91 67 6.0 13.0 0.00 0.00 0.00 68 1013.3
20260902195933 92 96 5.0 13.0 0.00 0.00 0.00 68 1013.2
20260902194930 92 100 5.0 11.0 0.00 0.00 0.00 71 1013.2
20260902193931 91 131 4.0 11.0 0.00 0.00 0.00 73 1013.3
20260902192930 90 37 4.0 9.0 0.00 0.00 0.00 74 1013.5
20260902191933 89 58 4.0 11.0 0.00 0.00 0.00 75 1013.6
20260902190929 89 76 5.0 12.0 0.00 0.01 0.00 71 1013.8
20260902190424 93 46 3.0 6.0 0.00 0.01 0.00 67 1013.8
20260902184930 91 29 2.0 5.0 0.00 0.01 0.00 70 1013.9
20260902183926 92 90 3.0 5.0 0.00 0.01 0.00 66 1014.0
20260902182926 94 344 4.0 10.0 0.00 0.01 0.00 64 1014.1
20260902181928 93 323 3.0 10.0 0.00 0.01 0.00 66 1014.1
20260902180925 93 283 3.0 8.0 0.00 0.01 0.00 66 1014.4
20260902175924 92 300 2.0 8.0 0.00 0.01 0.00 65 1014.5
20260902175422 92 325 5.0 10.0 0.00 0.01 0.00 69 1014.7
20260902173924 93 350 3.0 10.0 0.00 0.01 0.00 68 1014.7
20260902173406 92 106 3.0 7.0 0.00 0.01 0.00 67 1014.8
20260902171921 91 10 2.0 5.0 0.00 0.01 0.00 72 1014.9
20260902170924 90 10 3.0 8.0 0.00 0.01 0.00 71 1015.0
20260902165922 91 344 2.0 5.0 0.00 0.01 0.00 71 1015.1
20260902164920 89 25 3.0 9.0 0.00 0.01 0.00 73 1015.4
20260902163920 91 15 2.0 8.0 0.00 0.01 0.00 72 1015.4
20260902162920 89 29 1.0 4.0 0.00 0.01 0.00 73 1015.6
20260902161918 87 339 4.0 9.0 0.00 0.01 0.00 79 1015.7
20260902160919 89 333 4.0 8.0 0.00 0.01 0.00 75 1015.8
20260902160404 88 325 5.0 10.0 0.00 0.01 0.00 77 1015.9
20260902155355 89 306 3.0 8.0 0.00 0.01 0.00 77 1016.0